Time,TemperatureF,DewpointF,PressureIn,WindDirection,WindDirectionDegrees,WindSpeedMPH,WindSpeedGustMPH,Humidity,HourlyPrecipIn,Conditions,Clouds,dailyrainin,SolarRadiationWatts/m^2,SoftwareType,DateUTC
2013-10-14 00:02:00,63.7,61.9,30.23,ENE,76,0.0,0.0,94,0.00,,,0.00,0,Wunderground v.1.15,2013-10-14 04:02:00,
2013-10-14 00:05:00,63.7,61.9,30.23,ENE,76,0.0,0.0,94,0.00,,,0.00,0,Wunderground v.1.15,2013-10-14 04:05:00,
2013-10-14 00:06:00,63.7,61.9,30.23,ENE,76,0.0,0.0,94,0.00,,,0.00,0,Wunderground v.1.15,2013-10-14 04:06:00,
2013-10-14 00:08:00,63.7,61.9,30.23,ENE,76,0.0,0.0,94,0.00,,,0.00,0,Wunderground v.1.15,2013-10-14 04:08:00,
2013-10-14 00:13:00,63.7,61.9,30.23,ENE,76,0.0,0.0,94,0.00,,,0.00,0,Wunderground v.1.15,2013-10-14 04:13:00,
2013-10-14 00:15:00,63.7,61.9,30.23,ENE,76,0.0,0.0,94,0.00,,,0.00,0,Wunderground v.1.15,2013-10-14 04:15:00,
2013-10-14 00:21:00,63.7,62.2,30.23,ENE,77,0.0,0.0,95,0.00,,,0.00,0,Wunderground v.1.15,2013-10-14 04:21:00,
2013-10-14 00:26:00,63.9,62.7,30.23,ENE,76,1.0,1.0,96,0.00,,,0.00,0,Wunderground v.1.15,2013-10-14 04:26:00,
2013-10-14 00:33:00,63.9,62.7,30.23,ENE,76,0.0,0.0,96,0.00,,,0.00,0,Wunderground v.1.15,2013-10-14 04:33:00,
2013-10-14 00:38:00,64.0,62.8,30.23,ENE,76,0.0,0.0,96,0.00,,,0.00,0,Wunderground v.1.15,2013-10-14 04:38:00,
2013-10-14 00:44:00,64.0,62.8,30.23,ENE,76,0.0,0.0,96,0.00,,,0.00,0,Wunderground v.1.15,2013-10-14 04:44:00,
2013-10-14 00:50:00,64.0,62.8,30.22,ENE,76,0.0,0.0,96,0.00,,,0.00,0,Wunderground v.1.15,2013-10-14 04:50:00,
2013-10-14 00:55:00,64.0,62.8,30.23,ENE,76,0.0,0.0,96,0.00,,,0.00,0,Wunderground v.1.15,2013-10-14 04:55:00,
2013-10-14 01:01:00,64.0,62.8,30.23,ENE,76,0.0,0.0,96,0.00,,,0.00,0,Wunderground v.1.15,2013-10-14 05:01:00,
2013-10-14 01:06:00,64.1,63.2,30.23,ENE,76,1.0,1.0,97,0.00,,,0.00,0,Wunderground v.1.15,2013-10-14 05:06:00,
2013-10-14 01:11:00,64.1,62.9,30.23,ENE,76,0.0,0.0,96,0.00,,,0.00,0,Wunderground v.1.15,2013-10-14 05:11:00,
2013-10-14 01:16:00,64.1,63.2,30.23,ENE,76,0.0,0.0,97,0.00,,,0.00,0,Wunderground v.1.15,2013-10-14 05:16:00,
2013-10-14 01:22:00,64.1,62.9,30.23,ENE,76,0.0,0.0,96,0.00,,,0.00,0,Wunderground v.1.15,2013-10-14 05:22:00,
2013-10-14 01:27:00,64.1,63.2,30.23,ENE,76,0.0,0.0,97,0.00,,,0.00,0,Wunderground v.1.15,2013-10-14 05:27:00,
2013-10-14 01:33:00,64.2,63.0,30.23,ENE,76,0.0,1.0,96,0.00,,,0.00,0,Wunderground v.1.15,2013-10-14 05:33:00,
2013-10-14 01:38:00,64.0,62.8,30.23,ENE,76,0.0,1.0,96,0.00,,,0.00,0,Wunderground v.1.15,2013-10-14 05:38:00,
2013-10-14 01:44:00,64.1,62.9,30.23,ENE,76,1.0,2.0,96,0.00,,,0.00,0,Wunderground v.1.15,2013-10-14 05:44:00,
2013-10-14 01:50:00,64.1,62.6,30.23,ENE,76,0.0,2.0,95,0.00,,,0.00,0,Wunderground v.1.15,2013-10-14 05:50:00,
2013-10-14 01:55:00,64.0,62.8,30.23,ENE,76,0.0,1.0,96,0.00,,,0.00,0,Wunderground v.1.15,2013-10-14 05:55:00,
2013-10-14 02:02:00,64.0,62.8,30.23,ENE,76,0.0,0.0,96,0.00,,,0.00,0,Wunderground v.1.15,2013-10-14 06:02:00,
2013-10-14 02:07:00,63.9,62.7,30.23,ENE,76,0.0,0.0,96,0.00,,,0.00,0,Wunderground v.1.15,2013-10-14 06:07:00,
2013-10-14 02:12:00,63.9,62.7,30.23,ENE,76,0.0,1.0,96,0.00,,,0.00,0,Wunderground v.1.15,2013-10-14 06:12:00,
2013-10-14 02:18:00,63.9,62.7,30.23,ENE,76,0.0,1.0,96,0.00,,,0.00,0,Wunderground v.1.15,2013-10-14 06:18:00,
2013-10-14 02:23:00,64.0,62.8,30.23,ENE,76,0.0,0.0,96,0.00,,,0.00,0,Wunderground v.1.15,2013-10-14 06:23:00,
2013-10-14 02:28:00,63.9,63.0,30.23,ENE,76,0.0,0.0,97,0.00,,,0.00,0,Wunderground v.1.15,2013-10-14 06:28:00,
2013-10-14 02:33:00,63.9,63.0,30.23,ENE,76,0.0,0.0,97,0.00,,,0.00,0,Wunderground v.1.15,2013-10-14 06:33:00,
2013-10-14 02:38:00,63.9,63.0,30.23,ENE,76,0.0,0.0,97,0.00,,,0.00,0,Wunderground v.1.15,2013-10-14 06:38:00,
2013-10-14 02:44:00,63.9,62.7,30.23,ENE,76,0.0,0.0,96,0.00,,,0.00,0,Wunderground v.1.15,2013-10-14 06:44:00,
2013-10-14 02:49:00,64.0,63.1,30.22,ENE,76,1.0,2.0,97,0.00,,,0.00,0,Wunderground v.1.15,2013-10-14 06:49:00,
2013-10-14 02:54:00,64.0,62.8,30.22,ENE,76,0.0,3.0,96,0.00,,,0.00,0,Wunderground v.1.15,2013-10-14 06:54:00,
2013-10-14 02:59:00,63.7,62.5,30.22,ENE,76,0.0,3.0,96,0.00,,,0.00,0,Wunderground v.1.15,2013-10-14 06:59:00,
2013-10-14 03:04:00,63.8,62.3,30.22,ENE,73,2.0,2.0,95,0.00,,,0.00,0,Wunderground v.1.15,2013-10-14 07:04:00,
2013-10-14 03:09:00,63.7,62.2,30.22,East,83,1.0,1.0,95,0.00,,,0.00,0,Wunderground v.1.15,2013-10-14 07:09:00,
2013-10-14 03:14:00,63.7,62.2,30.22,East,83,1.0,3.0,95,0.00,,,0.00,0,Wunderground v.1.15,2013-10-14 07:14:00,
2013-10-14 03:19:00,63.8,62.3,30.22,East,83,2.0,3.0,95,0.00,,,0.00,0,Wunderground v.1.15,2013-10-14 07:19:00,
2013-10-14 03:24:00,63.8,62.3,30.22,East,83,1.0,3.0,95,0.00,,,0.00,0,Wunderground v.1.15,2013-10-14 07:24:00,
2013-10-14 03:29:00,63.7,62.2,30.22,East,83,2.0,3.0,95,0.00,,,0.00,0,Wunderground v.1.15,2013-10-14 07:29:00,
2013-10-14 03:35:00,63.7,62.2,30.22,ENE,68,1.0,3.0,95,0.00,,,0.00,0,Wunderground v.1.15,2013-10-14 07:35:00,
2013-10-14 03:40:00,63.6,61.8,30.22,ENE,68,1.0,2.0,94,0.00,,,0.00,0,Wunderground v.1.15,2013-10-14 07:40:00,
2013-10-14 03:45:00,63.7,62.2,30.22,ENE,68,2.0,2.0,95,0.00,,,0.00,0,Wunderground v.1.15,2013-10-14 07:45:00,
2013-10-14 03:50:00,63.6,61.8,30.22,NE,48,0.0,2.0,94,0.00,,,0.00,0,Wunderground v.1.15,2013-10-14 07:50:00,
2013-10-14 03:55:00,63.7,61.9,30.21,ENE,60,0.0,3.0,94,0.00,,,0.00,0,Wunderground v.1.15,2013-10-14 07:55:00,
2013-10-14 04:00:00,63.6,61.8,30.22,ENE,59,0.0,0.0,94,0.00,,,0.00,0,Wunderground v.1.15,2013-10-14 08:00:00,
2013-10-14 04:05:00,63.6,61.8,30.22,ENE,59,0.0,1.0,94,0.00,,,0.00,0,Wunderground v.1.15,2013-10-14 08:05:00,
2013-10-14 04:10:00,63.6,62.1,30.22,ENE,59,0.0,0.0,95,0.00,,,0.00,0,Wunderground v.1.15,2013-10-14 08:10:00,
2013-10-14 04:15:00,63.5,62.0,30.22,ENE,59,0.0,1.0,95,0.00,,,0.00,0,Wunderground v.1.15,2013-10-14 08:15:00,
2013-10-14 04:20:00,63.5,62.0,30.22,ENE,60,0.0,0.0,95,0.00,,,0.00,0,Wunderground v.1.15,2013-10-14 08:20:00,
2013-10-14 04:25:00,63.6,62.1,30.22,ENE,60,0.0,1.0,95,0.00,,,0.00,0,Wunderground v.1.15,2013-10-14 08:25:00,
2013-10-14 04:30:00,63.6,62.1,30.22,ENE,59,0.0,0.0,95,0.00,,,0.00,0,Wunderground v.1.15,2013-10-14 08:30:00,
2013-10-14 04:35:00,63.6,61.8,30.22,ENE,60,0.0,1.0,94,0.00,,,0.00,0,Wunderground v.1.15,2013-10-14 08:35:00,
2013-10-14 04:40:00,63.4,61.6,30.22,ENE,70,2.0,2.0,94,0.00,,,0.00,0,Wunderground v.1.15,2013-10-14 08:40:00,
2013-10-14 04:45:00,63.3,61.5,30.22,ENE,59,1.0,3.0,94,0.00,,,0.00,0,Wunderground v.1.15,2013-10-14 08:45:00,
2013-10-14 04:50:00,63.4,61.3,30.22,ENE,74,1.0,1.0,93,0.00,,,0.00,0,Wunderground v.1.15,2013-10-14 08:50:00,
2013-10-14 04:55:00,63.2,61.4,30.22,ENE,73,1.0,3.0,94,0.00,,,0.00,0,Wunderground v.1.15,2013-10-14 08:55:00,
2013-10-14 05:01:00,63.3,61.5,30.23,NE,55,0.0,3.0,94,0.00,,,0.00,0,Wunderground v.1.15,2013-10-14 09:01:00,
2013-10-14 05:06:00,63.2,61.4,30.22,NE,55,2.0,3.0,94,0.00,,,0.00,0,Wunderground v.1.15,2013-10-14 09:06:00,
2013-10-14 05:12:00,63.1,61.3,30.22,East,81,1.0,3.0,94,0.00,,,0.00,0,Wunderground v.1.15,2013-10-14 09:12:00,
2013-10-14 05:17:00,63.0,61.2,30.22,ENE,71,1.0,3.0,94,0.00,,,0.00,0,Wunderground v.1.15,2013-10-14 09:17:00,
2013-10-14 05:22:00,63.0,61.2,30.22,ENE,70,2.0,3.0,94,0.00,,,0.00,0,Wunderground v.1.15,2013-10-14 09:22:00,
2013-10-14 05:27:00,63.0,61.2,30.22,ENE,62,0.0,3.0,94,0.00,,,0.00,0,Wunderground v.1.15,2013-10-14 09:27:00,
2013-10-14 05:32:00,62.9,60.8,30.22,ENE,72,1.0,2.0,93,0.00,,,0.00,0,Wunderground v.1.15,2013-10-14 09:32:00,
2013-10-14 05:37:00,63.0,60.9,30.22,ENE,70,1.0,2.0,93,0.00,,,0.00,0,Wunderground v.1.15,2013-10-14 09:37:00,
2013-10-14 05:42:00,62.9,60.8,30.22,ENE,68,1.0,3.0,93,0.00,,,0.00,0,Wunderground v.1.15,2013-10-14 09:42:00,
2013-10-14 05:47:00,62.9,61.1,30.22,NNE,31,0.0,4.0,94,0.00,,,0.00,0,Wunderground v.1.15,2013-10-14 09:47:00,
2013-10-14 05:52:00,62.8,60.7,30.22,NE,35,2.0,3.0,93,0.00,,,0.00,0,Wunderground v.1.15,2013-10-14 09:52:00,
2013-10-14 05:57:00,62.9,60.8,30.23,NE,54,2.0,4.0,93,0.00,,,0.00,0,Wunderground v.1.15,2013-10-14 09:57:00,
2013-10-14 06:02:00,62.7,60.6,30.23,NE,40,0.0,2.0,93,0.00,,,0.00,0,Wunderground v.1.15,2013-10-14 10:02:00,
2013-10-14 06:07:00,62.8,60.7,30.22,NE,41,1.0,2.0,93,0.00,,,0.00,0,Wunderground v.1.15,2013-10-14 10:07:00,
2013-10-14 06:12:00,62.6,60.5,30.23,NE,40,0.0,1.0,93,0.00,,,0.00,0,Wunderground v.1.15,2013-10-14 10:12:00,
2013-10-14 06:17:00,62.6,60.2,30.23,NE,51,1.0,3.0,92,0.00,,,0.00,0,Wunderground v.1.15,2013-10-14 10:17:00,
2013-10-14 06:22:00,62.6,60.2,30.23,East,84,2.0,2.0,92,0.00,,,0.00,0,Wunderground v.1.15,2013-10-14 10:22:00,
2013-10-14 06:27:00,62.5,60.1,30.23,NNE,33,5.0,5.0,92,0.00,,,0.00,0,Wunderground v.1.15,2013-10-14 10:27:00,
2013-10-14 06:32:00,62.5,60.1,30.23,NE,44,1.0,2.0,92,0.00,,,0.00,0,Wunderground v.1.15,2013-10-14 10:32:00,
2013-10-14 06:37:00,62.5,60.1,30.23,NE,44,0.0,2.0,92,0.00,,,0.00,0,Wunderground v.1.15,2013-10-14 10:37:00,
2013-10-14 06:42:00,62.4,59.7,30.23,NE,56,2.0,2.0,91,0.00,,,0.00,0,Wunderground v.1.15,2013-10-14 10:42:00,
2013-10-14 06:47:00,62.4,59.7,30.23,ENE,61,1.0,3.0,91,0.00,,,0.00,0,Wunderground v.1.15,2013-10-14 10:47:00,
2013-10-14 06:52:00,62.3,59.6,30.24,ENE,61,0.0,1.0,91,0.00,,,0.00,0,Wunderground v.1.15,2013-10-14 10:52:00,
2013-10-14 06:57:00,62.4,59.7,30.24,ENE,61,1.0,3.0,91,0.00,,,0.00,0,Wunderground v.1.15,2013-10-14 10:57:00,
2013-10-14 07:02:00,62.4,60.0,30.23,ENE,61,2.0,2.0,92,0.00,,,0.00,0,Wunderground v.1.15,2013-10-14 11:02:00,
2013-10-14 07:07:00,62.3,59.9,30.24,NE,46,2.0,2.0,92,0.00,,,0.00,0,Wunderground v.1.15,2013-10-14 11:07:00,
2013-10-14 07:12:00,62.3,59.9,30.24,NE,40,0.0,2.0,92,0.00,,,0.00,0,Wunderground v.1.15,2013-10-14 11:12:00,
2013-10-14 07:18:00,62.4,60.0,30.24,NE,42,1.0,2.0,92,0.00,,,0.00,0,Wunderground v.1.15,2013-10-14 11:18:00,
2013-10-14 07:23:00,62.3,59.9,30.24,NE,42,0.0,1.0,92,0.00,,,0.00,0,Wunderground v.1.15,2013-10-14 11:23:00,
2013-10-14 07:28:00,62.3,60.2,30.24,NE,42,0.0,1.0,93,0.00,,,0.00,0,Wunderground v.1.15,2013-10-14 11:28:00,
2013-10-14 07:33:00,62.2,59.8,30.24,NE,42,1.0,2.0,92,0.00,,,0.00,0,Wunderground v.1.15,2013-10-14 11:33:00,
2013-10-14 07:38:00,62.3,60.2,30.24,NE,56,4.0,4.0,93,0.00,,,0.00,0,Wunderground v.1.15,2013-10-14 11:38:00,
2013-10-14 07:43:00,62.1,60.1,30.24,East,82,0.0,3.0,93,0.00,,,0.00,0,Wunderground v.1.15,2013-10-14 11:43:00,
2013-10-14 07:48:00,62.1,59.7,30.24,NE,42,2.0,4.0,92,0.00,,,0.00,0,Wunderground v.1.15,2013-10-14 11:48:00,
2013-10-14 07:53:00,62.0,60.0,30.24,ENE,57,0.0,3.0,93,0.00,,,0.00,0,Wunderground v.1.15,2013-10-14 11:53:00,
2013-10-14 07:58:00,62.1,60.1,30.24,NE,56,0.0,3.0,93,0.00,,,0.00,0,Wunderground v.1.15,2013-10-14 11:58:00,
2013-10-14 08:04:00,62.0,59.6,30.25,ENE,57,1.0,2.0,92,0.00,,,0.00,0,Wunderground v.1.15,2013-10-14 12:04:00,
2013-10-14 08:09:00,62.1,60.1,30.25,NE,56,0.0,2.0,93,0.00,,,0.00,0,Wunderground v.1.15,2013-10-14 12:09:00,
2013-10-14 08:14:00,62.1,60.1,30.25,NE,56,0.0,0.0,93,0.00,,,0.00,0,Wunderground v.1.15,2013-10-14 12:14:00,
2013-10-14 08:19:00,62.0,59.6,30.25,ENE,57,2.0,3.0,92,0.00,,,0.00,0,Wunderground v.1.15,2013-10-14 12:19:00,
2013-10-14 08:24:00,62.1,59.7,30.25,ENE,58,2.0,2.0,92,0.00,,,0.00,0,Wunderground v.1.15,2013-10-14 12:24:00,
2013-10-14 08:30:00,62.0,59.6,30.25,ENE,57,1.0,2.0,92,0.00,,,0.00,0,Wunderground v.1.15,2013-10-14 12:30:00,
2013-10-14 08:35:00,62.1,59.7,30.25,ENE,62,1.0,3.0,92,0.00,,,0.00,0,Wunderground v.1.15,2013-10-14 12:35:00,
2013-10-14 08:40:00,62.1,59.7,30.25,ENE,70,1.0,4.0,92,0.00,,,0.00,0,Wunderground v.1.15,2013-10-14 12:40:00,
2013-10-14 08:45:00,61.9,59.5,30.25,ENE,57,1.0,4.0,92,0.00,,,0.00,0,Wunderground v.1.15,2013-10-14 12:45:00,
2013-10-14 08:51:00,62.0,60.0,30.25,ENE,57,0.0,2.0,93,0.00,,,0.00,0,Wunderground v.1.15,2013-10-14 12:51:00,
2013-10-14 08:56:00,61.8,59.8,30.25,ENE,72,2.0,5.0,93,0.00,,,0.00,0,Wunderground v.1.15,2013-10-14 12:56:00,
2013-10-14 09:02:00,61.9,59.9,30.25,ENE,66,0.0,2.0,93,0.00,,,0.00,0,Wunderground v.1.15,2013-10-14 13:02:00,
2013-10-14 09:07:00,61.9,59.9,30.26,ENE,61,3.0,3.0,93,0.00,,,0.00,0,Wunderground v.1.15,2013-10-14 13:07:00,
2013-10-14 09:12:00,61.9,59.5,30.26,ENE,58,1.0,2.0,92,0.00,,,0.00,0,Wunderground v.1.15,2013-10-14 13:12:00,
2013-10-14 09:17:00,61.9,59.5,30.26,NE,40,3.0,3.0,92,0.00,,,0.00,0,Wunderground v.1.15,2013-10-14 13:17:00,
2013-10-14 09:22:00,61.9,59.5,30.26,East,88,1.0,3.0,92,0.00,,,0.00,0,Wunderground v.1.15,2013-10-14 13:22:00,
2013-10-14 09:27:00,61.8,59.1,30.26,ENE,61,3.0,4.0,91,0.00,,,0.00,0,Wunderground v.1.15,2013-10-14 13:27:00,
2013-10-14 09:32:00,61.9,59.5,30.27,ENE,70,2.0,3.0,92,0.00,,,0.00,0,Wunderground v.1.15,2013-10-14 13:32:00,
2013-10-14 09:37:00,61.9,59.5,30.26,ENE,78,0.0,3.0,92,0.00,,,0.00,0,Wunderground v.1.15,2013-10-14 13:37:00,
2013-10-14 09:42:00,61.9,59.5,30.26,ENE,70,1.0,2.0,92,0.00,,,0.00,0,Wunderground v.1.15,2013-10-14 13:42:00,
2013-10-14 09:47:00,61.9,59.2,30.26,ENE,69,0.0,3.0,91,0.00,,,0.00,0,Wunderground v.1.15,2013-10-14 13:47:00,
2013-10-14 09:52:00,62.1,59.4,30.26,ENE,69,1.0,1.0,91,0.00,,,0.00,0,Wunderground v.1.15,2013-10-14 13:52:00,
2013-10-14 09:57:00,62.2,59.5,30.26,ENE,69,1.0,3.0,91,0.00,,,0.00,0,Wunderground v.1.15,2013-10-14 13:57:00,
2013-10-14 10:02:00,62.3,59.3,30.26,ENE,70,0.0,1.0,90,0.00,,,0.00,0,Wunderground v.1.15,2013-10-14 14:02:00,
2013-10-14 10:08:00,62.4,59.4,30.26,ENE,69,2.0,2.0,90,0.00,,,0.00,0,Wunderground v.1.15,2013-10-14 14:08:00,
2013-10-14 10:13:00,62.5,59.2,30.27,ENE,69,0.0,1.0,89,0.00,,,0.00,0,Wunderground v.1.15,2013-10-14 14:13:00,
2013-10-14 10:18:00,62.5,59.2,30.26,ENE,69,0.0,1.0,89,0.00,,,0.00,0,Wunderground v.1.15,2013-10-14 14:18:00,
2013-10-14 10:23:00,62.4,58.8,30.26,NE,56,2.0,3.0,88,0.00,,,0.00,0,Wunderground v.1.15,2013-10-14 14:23:00,
2013-10-14 10:28:00,62.4,59.1,30.26,NE,56,1.0,3.0,89,0.00,,,0.00,0,Wunderground v.1.15,2013-10-14 14:28:00,
2013-10-14 10:33:00,62.5,59.2,30.26,NE,56,0.0,2.0,89,0.00,,,0.00,0,Wunderground v.1.15,2013-10-14 14:33:00,
2013-10-14 10:38:00,62.6,59.0,30.26,NE,56,0.0,2.0,88,0.00,,,0.00,0,Wunderground v.1.15,2013-10-14 14:38:00,
2013-10-14 10:43:00,62.7,59.1,30.26,NE,56,2.0,3.0,88,0.00,,,0.00,0,Wunderground v.1.15,2013-10-14 14:43:00,
2013-10-14 10:48:00,62.9,59.0,30.26,NE,56,1.0,3.0,87,0.00,,,0.00,0,Wunderground v.1.15,2013-10-14 14:48:00,
2013-10-14 10:53:00,62.9,59.0,30.26,NE,56,1.0,1.0,87,0.00,,,0.00,0,Wunderground v.1.15,2013-10-14 14:53:00,
2013-10-14 10:58:00,63.0,58.7,30.26,NE,56,0.0,2.0,86,0.00,,,0.00,0,Wunderground v.1.15,2013-10-14 14:58:00,
2013-10-14 11:03:00,63.1,58.8,30.26,NE,56,0.0,1.0,86,0.00,,,0.00,0,Wunderground v.1.15,2013-10-14 15:03:00,
2013-10-14 11:08:00,63.0,58.7,30.26,NE,56,1.0,2.0,86,0.00,,,0.00,0,Wunderground v.1.15,2013-10-14 15:08:00,
2013-10-14 11:13:00,63.1,58.8,30.26,NE,56,1.0,2.0,86,0.00,,,0.00,0,Wunderground v.1.15,2013-10-14 15:13:00,
2013-10-14 11:18:00,63.0,58.7,30.26,NE,56,0.0,2.0,86,0.00,,,0.00,0,Wunderground v.1.15,2013-10-14 15:18:00,
2013-10-14 11:23:00,63.0,59.1,30.26,NE,56,1.0,1.0,87,0.00,,,0.00,0,Wunderground v.1.15,2013-10-14 15:23:00,
2013-10-14 11:28:00,63.3,59.0,30.26,NE,56,1.0,2.0,86,0.00,,,0.00,0,Wunderground v.1.15,2013-10-14 15:28:00,
2013-10-14 11:33:00,63.4,58.8,30.25,NE,56,0.0,3.0,85,0.00,,,0.00,0,Wunderground v.1.15,2013-10-14 15:33:00,
2013-10-14 11:38:00,63.9,59.0,30.25,NE,56,2.0,3.0,84,0.00,,,0.00,0,Wunderground v.1.15,2013-10-14 15:38:00,
2013-10-14 11:43:00,64.1,58.8,30.25,ENE,78,1.0,3.0,83,0.00,,,0.00,0,Wunderground v.1.15,2013-10-14 15:43:00,
2013-10-14 11:49:00,64.2,58.9,30.25,ENE,77,1.0,3.0,83,0.00,,,0.00,0,Wunderground v.1.15,2013-10-14 15:49:00,
2013-10-14 11:54:00,64.2,58.9,30.25,ENE,76,2.0,2.0,83,0.00,,,0.00,0,Wunderground v.1.15,2013-10-14 15:54:00,
2013-10-14 11:59:00,64.2,58.9,30.25,ENE,76,1.0,2.0,83,0.00,,,0.00,0,Wunderground v.1.15,2013-10-14 15:59:00,
2013-10-14 12:04:00,64.0,58.7,30.25,ENE,63,1.0,2.0,83,0.00,,,0.00,0,Wunderground v.1.15,2013-10-14 16:04:00,
2013-10-14 12:09:00,64.1,58.8,30.25,ENE,63,1.0,2.0,83,0.00,,,0.00,0,Wunderground v.1.15,2013-10-14 16:09:00,
2013-10-14 12:14:00,64.1,58.8,30.24,ENE,63,1.0,3.0,83,0.00,,,0.00,0,Wunderground v.1.15,2013-10-14 16:14:00,
2013-10-14 12:19:00,64.0,58.7,30.25,ENE,61,0.0,4.0,83,0.00,,,0.00,0,Wunderground v.1.15,2013-10-14 16:19:00,
2013-10-14 12:25:00,64.1,58.8,30.25,ENE,63,1.0,3.0,83,0.00,,,0.00,0,Wunderground v.1.15,2013-10-14 16:25:00,
2013-10-14 12:30:00,64.4,59.1,30.24,ENE,62,1.0,1.0,83,0.00,,,0.00,0,Wunderground v.1.15,2013-10-14 16:30:00,
2013-10-14 12:36:00,64.3,59.0,30.25,ENE,63,0.0,2.0,83,0.00,,,0.00,0,Wunderground v.1.15,2013-10-14 16:36:00,
2013-10-14 12:41:00,64.4,58.8,30.24,ENE,62,1.0,2.0,82,0.00,,,0.00,0,Wunderground v.1.15,2013-10-14 16:41:00,
2013-10-14 12:46:00,64.5,59.2,30.25,ENE,62,1.0,2.0,83,0.00,,,0.00,0,Wunderground v.1.15,2013-10-14 16:46:00,
2013-10-14 12:51:00,64.6,59.0,30.25,ENE,62,0.0,0.0,82,0.00,,,0.00,0,Wunderground v.1.15,2013-10-14 16:51:00,
2013-10-14 12:56:00,64.5,58.9,30.25,ENE,62,2.0,3.0,82,0.00,,,0.00,0,Wunderground v.1.15,2013-10-14 16:56:00,
2013-10-14 13:02:00,64.5,58.9,30.25,ENE,64,1.0,2.0,82,0.00,,,0.00,0,Wunderground v.1.15,2013-10-14 17:02:00,
2013-10-14 13:07:00,64.7,59.1,30.24,ENE,64,0.0,2.0,82,0.00,,,0.00,0,Wunderground v.1.15,2013-10-14 17:07:00,
2013-10-14 13:12:00,64.9,59.3,30.24,ENE,64,1.0,1.0,82,0.00,,,0.00,0,Wunderground v.1.15,2013-10-14 17:12:00,
2013-10-14 13:17:00,64.7,59.1,30.24,ENE,64,0.0,2.0,82,0.00,,,0.00,0,Wunderground v.1.15,2013-10-14 17:17:00,
2013-10-14 13:22:00,64.7,59.1,30.24,ENE,64,0.0,2.0,82,0.00,,,0.00,0,Wunderground v.1.15,2013-10-14 17:22:00,
2013-10-14 13:27:00,64.7,59.4,30.23,ENE,62,2.0,3.0,83,0.00,,,0.00,0,Wunderground v.1.15,2013-10-14 17:27:00,
2013-10-14 13:32:00,64.8,59.5,30.23,ENE,61,1.0,3.0,83,0.00,,,0.00,0,Wunderground v.1.15,2013-10-14 17:32:00,
2013-10-14 13:37:00,64.9,59.6,30.23,ENE,77,1.0,3.0,83,0.00,,,0.00,0,Wunderground v.1.15,2013-10-14 17:37:00,
2013-10-14 13:42:00,65.0,60.0,30.23,ENE,72,2.0,2.0,84,0.00,,,0.00,0,Wunderground v.1.15,2013-10-14 17:42:00,
2013-10-14 13:47:00,65.1,60.1,30.22,ENE,74,2.0,4.0,84,0.00,,,0.00,0,Wunderground v.1.15,2013-10-14 17:47:00,
2013-10-14 13:52:00,65.0,60.0,30.22,ENE,75,0.0,4.0,84,0.00,,,0.00,0,Wunderground v.1.15,2013-10-14 17:52:00,
2013-10-14 13:57:00,65.0,59.7,30.22,NE,52,2.0,4.0,83,0.00,,,0.00,0,Wunderground v.1.15,2013-10-14 17:57:00,
2013-10-14 14:02:00,65.1,59.8,30.22,ENE,70,1.0,3.0,83,0.00,,,0.00,0,Wunderground v.1.15,2013-10-14 18:02:00,
2013-10-14 14:07:00,65.0,59.7,30.21,NE,42,3.0,4.0,83,0.00,,,0.00,0,Wunderground v.1.15,2013-10-14 18:07:00,
2013-10-14 14:12:00,65.0,60.4,30.21,ENE,60,2.0,3.0,85,0.00,,,0.00,0,Wunderground v.1.15,2013-10-14 18:12:00,
2013-10-14 14:18:00,65.2,59.9,30.21,ENE,65,0.0,3.0,83,0.00,,,0.00,0,Wunderground v.1.15,2013-10-14 18:18:00,
2013-10-14 14:23:00,65.3,60.0,30.20,ENE,66,0.0,2.0,83,0.00,,,0.00,0,Wunderground v.1.15,2013-10-14 18:23:00,
2013-10-14 14:29:00,65.3,60.0,30.21,ENE,66,1.0,3.0,83,0.00,,,0.00,0,Wunderground v.1.15,2013-10-14 18:29:00,
2013-10-14 14:34:00,65.5,60.2,30.20,ENE,66,0.0,3.0,83,0.00,,,0.00,0,Wunderground v.1.15,2013-10-14 18:34:00,
2013-10-14 14:39:00,65.5,59.9,30.20,ENE,76,2.0,3.0,82,0.00,,,0.00,0,Wunderground v.1.15,2013-10-14 18:39:00,
2013-10-14 14:44:00,65.4,60.1,30.20,ENE,74,0.0,3.0,83,0.00,,,0.00,0,Wunderground v.1.15,2013-10-14 18:44:00,
2013-10-14 14:49:00,65.7,60.1,30.20,ENE,74,1.0,3.0,82,0.00,,,0.00,0,Wunderground v.1.15,2013-10-14 18:49:00,
2013-10-14 14:54:00,65.8,60.2,30.20,ENE,74,0.0,2.0,82,0.00,,,0.00,0,Wunderground v.1.15,2013-10-14 18:54:00,
2013-10-14 14:59:00,65.8,60.2,30.20,NNE,30,2.0,4.0,82,0.00,,,0.00,0,Wunderground v.1.15,2013-10-14 18:59:00,
2013-10-14 15:04:00,65.6,60.0,30.20,NE,38,2.0,3.0,82,0.00,,,0.00,0,Wunderground v.1.15,2013-10-14 19:04:00,
2013-10-14 15:09:00,65.5,60.2,30.19,ENE,74,1.0,4.0,83,0.00,,,0.00,0,Wunderground v.1.15,2013-10-14 19:09:00,
2013-10-14 15:14:00,66.0,60.7,30.19,ENE,74,2.0,3.0,83,0.00,,,0.00,0,Wunderground v.1.15,2013-10-14 19:14:00,
2013-10-14 15:19:00,66.1,60.4,30.19,ENE,75,2.0,4.0,82,0.00,,,0.00,0,Wunderground v.1.15,2013-10-14 19:19:00,
2013-10-14 15:24:00,66.2,60.5,30.19,ENE,69,1.0,4.0,82,0.00,,,0.00,0,Wunderground v.1.15,2013-10-14 19:24:00,
2013-10-14 15:29:00,66.8,60.8,30.19,ENE,66,3.0,3.0,81,0.00,,,0.00,0,Wunderground v.1.15,2013-10-14 19:29:00,
2013-10-14 15:36:00,66.8,60.8,30.18,ENE,66,3.0,4.0,81,0.00,,,0.00,0,Wunderground v.1.15,2013-10-14 19:36:00,
2013-10-14 15:41:00,67.2,61.2,30.18,NE,52,2.0,3.0,81,0.00,,,0.00,0,Wunderground v.1.15,2013-10-14 19:41:00,
2013-10-14 15:46:00,67.3,60.9,30.18,NE,56,2.0,4.0,80,0.00,,,0.00,0,Wunderground v.1.15,2013-10-14 19:46:00,
2013-10-14 15:51:00,67.1,61.1,30.18,ENE,75,3.0,4.0,81,0.00,,,0.00,0,Wunderground v.1.15,2013-10-14 19:51:00,
2013-10-14 15:56:00,66.9,60.5,30.17,ENE,62,1.0,5.0,80,0.00,,,0.00,0,Wunderground v.1.15,2013-10-14 19:56:00,
2013-10-14 16:02:00,67.4,61.4,30.17,ENE,61,1.0,3.0,81,0.00,,,0.00,0,Wunderground v.1.15,2013-10-14 20:02:00,
2013-10-14 16:07:00,67.1,60.7,30.17,ENE,66,3.0,4.0,80,0.00,,,0.00,0,Wunderground v.1.15,2013-10-14 20:07:00,
2013-10-14 16:12:00,66.9,60.9,30.17,ENE,72,3.0,3.0,81,0.00,,,0.00,0,Wunderground v.1.15,2013-10-14 20:12:00,
2013-10-14 16:17:00,66.8,60.8,30.17,NE,47,1.0,6.0,81,0.00,,,0.00,0,Wunderground v.1.15,2013-10-14 20:17:00,
2013-10-14 16:22:00,66.7,60.7,30.17,NE,37,1.0,3.0,81,0.00,,,0.00,0,Wunderground v.1.15,2013-10-14 20:22:00,
2013-10-14 16:27:00,66.7,61.0,30.17,NE,50,1.0,3.0,82,0.00,,,0.00,0,Wunderground v.1.15,2013-10-14 20:27:00,
2013-10-14 16:32:00,66.4,60.7,30.17,NE,34,3.0,3.0,82,0.00,,,0.00,0,Wunderground v.1.15,2013-10-14 20:32:00,
2013-10-14 16:37:00,66.2,61.2,30.17,NE,52,0.0,4.0,84,0.00,,,0.00,0,Wunderground v.1.15,2013-10-14 20:37:00,
2013-10-14 16:42:00,66.1,61.1,30.17,NE,52,1.0,2.0,84,0.00,,,0.00,0,Wunderground v.1.15,2013-10-14 20:42:00,
2013-10-14 16:47:00,66.0,60.7,30.17,NE,46,1.0,4.0,83,0.00,,,0.00,0,Wunderground v.1.15,2013-10-14 20:47:00,
2013-10-14 16:52:00,66.0,60.7,30.17,ENE,72,3.0,3.0,83,0.00,,,0.00,0,Wunderground v.1.15,2013-10-14 20:52:00,
2013-10-14 16:57:00,65.8,60.5,30.17,NNE,30,1.0,4.0,83,0.00,,,0.00,0,Wunderground v.1.15,2013-10-14 20:57:00,
2013-10-14 17:02:00,65.7,60.7,30.17,NE,55,1.0,2.0,84,0.00,,,0.00,0,Wunderground v.1.15,2013-10-14 21:02:00,
2013-10-14 17:07:00,65.6,60.3,30.17,ENE,57,1.0,4.0,83,0.00,,,0.00,0,Wunderground v.1.15,2013-10-14 21:07:00,
2013-10-14 17:12:00,65.5,60.5,30.17,ENE,58,1.0,2.0,84,0.00,,,0.00,0,Wunderground v.1.15,2013-10-14 21:12:00,
2013-10-14 17:17:00,65.5,60.5,30.17,ENE,58,0.0,3.0,84,0.00,,,0.00,0,Wunderground v.1.15,2013-10-14 21:17:00,
2013-10-14 17:22:00,65.6,60.6,30.18,ENE,58,0.0,2.0,84,0.00,,,0.00,0,Wunderground v.1.15,2013-10-14 21:22:00,
2013-10-14 17:27:00,65.7,61.1,30.17,NNE,29,1.0,3.0,85,0.00,,,0.00,0,Wunderground v.1.15,2013-10-14 21:27:00,
2013-10-14 17:32:00,65.7,61.1,30.18,NNE,30,1.0,1.0,85,0.00,,,0.00,0,Wunderground v.1.15,2013-10-14 21:32:00,
2013-10-14 17:37:00,65.6,61.0,30.17,NNE,33,1.0,2.0,85,0.00,,,0.00,0,Wunderground v.1.15,2013-10-14 21:37:00,
2013-10-14 17:42:00,65.6,61.0,30.18,NE,56,1.0,1.0,85,0.00,,,0.00,0,Wunderground v.1.15,2013-10-14 21:42:00,
2013-10-14 17:47:00,65.5,60.5,30.18,ENE,65,1.0,3.0,84,0.00,,,0.00,0,Wunderground v.1.15,2013-10-14 21:47:00,
2013-10-14 17:52:00,65.5,60.5,30.18,ENE,78,2.0,3.0,84,0.00,,,0.00,0,Wunderground v.1.15,2013-10-14 21:52:00,
2013-10-14 17:57:00,65.4,60.8,30.18,ENE,58,3.0,3.0,85,0.00,,,0.00,0,Wunderground v.1.15,2013-10-14 21:57:00,
2013-10-14 18:02:00,65.4,60.8,30.18,NE,53,2.0,3.0,85,0.00,,,0.00,0,Wunderground v.1.15,2013-10-14 22:02:00,
2013-10-14 18:07:00,65.3,60.7,30.18,ENE,66,3.0,3.0,85,0.00,,,0.00,0,Wunderground v.1.15,2013-10-14 22:07:00,
2013-10-14 18:12:00,65.2,60.6,30.18,ENE,63,1.0,2.0,85,0.00,,,0.00,0,Wunderground v.1.15,2013-10-14 22:12:00,
2013-10-14 18:17:00,65.2,60.6,30.18,ENE,63,1.0,3.0,85,0.00,,,0.00,0,Wunderground v.1.15,2013-10-14 22:17:00,
2013-10-14 18:22:00,65.1,60.8,30.18,ENE,64,1.0,2.0,86,0.00,,,0.00,0,Wunderground v.1.15,2013-10-14 22:22:00,
2013-10-14 18:27:00,65.1,60.8,30.18,ENE,63,2.0,2.0,86,0.00,,,0.00,0,Wunderground v.1.15,2013-10-14 22:27:00,
2013-10-14 18:32:00,65.1,60.8,30.18,NE,51,1.0,2.0,86,0.00,,,0.00,0,Wunderground v.1.15,2013-10-14 22:32:00,
2013-10-14 18:37:00,65.1,61.1,30.18,NE,51,0.0,3.0,87,0.00,,,0.00,0,Wunderground v.1.15,2013-10-14 22:37:00,
2013-10-14 18:42:00,65.0,61.0,30.18,NE,50,1.0,3.0,87,0.00,,,0.00,0,Wunderground v.1.15,2013-10-14 22:42:00,
2013-10-14 18:47:00,65.0,61.0,30.18,NE,50,1.0,3.0,87,0.00,,,0.00,0,Wunderground v.1.15,2013-10-14 22:47:00,
2013-10-14 18:52:00,65.0,61.4,30.18,NE,51,2.0,2.0,88,0.00,,,0.00,0,Wunderground v.1.15,2013-10-14 22:52:00,
2013-10-14 18:57:00,64.9,60.9,30.18,NE,55,2.0,3.0,87,0.00,,,0.00,0,Wunderground v.1.15,2013-10-14 22:57:00,
2013-10-14 19:02:00,64.9,60.9,30.18,NE,46,1.0,2.0,87,0.00,,,0.00,0,Wunderground v.1.15,2013-10-14 23:02:00,
2013-10-14 19:07:00,64.8,60.8,30.18,ENE,61,3.0,3.0,87,0.00,,,0.00,0,Wunderground v.1.15,2013-10-14 23:07:00,
2013-10-14 19:12:00,64.7,61.1,30.18,NE,54,1.0,3.0,88,0.00,,,0.00,0,Wunderground v.1.15,2013-10-14 23:12:00,
2013-10-14 19:17:00,64.7,61.1,30.18,NE,54,1.0,3.0,88,0.00,,,0.00,0,Wunderground v.1.15,2013-10-14 23:17:00,
2013-10-14 19:22:00,64.7,61.1,30.18,NE,53,0.0,2.0,88,0.00,,,0.00,0,Wunderground v.1.15,2013-10-14 23:22:00,
2013-10-14 19:27:00,64.7,61.1,30.18,ENE,60,1.0,3.0,88,0.00,,,0.00,0,Wunderground v.1.15,2013-10-14 23:27:00,
2013-10-14 19:32:00,64.7,61.1,30.18,ENE,60,0.0,2.0,88,0.00,,,0.00,0,Wunderground v.1.15,2013-10-14 23:32:00,
2013-10-14 19:37:00,64.6,61.0,30.18,ENE,65,1.0,3.0,88,0.00,,,0.00,0,Wunderground v.1.15,2013-10-14 23:37:00,
2013-10-14 19:43:00,64.7,61.4,30.18,ENE,58,0.0,2.0,89,0.00,,,0.00,0,Wunderground v.1.15,2013-10-14 23:43:00,
2013-10-14 19:48:00,64.7,61.1,30.19,ENE,58,1.0,2.0,88,0.00,,,0.00,0,Wunderground v.1.15,2013-10-14 23:48:00,
2013-10-14 19:53:00,64.6,61.0,30.19,ENE,59,2.0,3.0,88,0.00,,,0.00,0,Wunderground v.1.15,2013-10-14 23:53:00,
2013-10-14 19:58:00,64.6,61.3,30.19,ENE,58,1.0,3.0,89,0.00,,,0.00,0,Wunderground v.1.15,2013-10-14 23:58:00,
2013-10-14 20:04:00,64.5,60.9,30.18,ENE,58,1.0,3.0,88,0.00,,,0.00,0,Wunderground v.1.15,2013-10-15 00:04:00,
2013-10-14 20:09:00,64.5,60.9,30.18,ENE,58,2.0,2.0,88,0.00,,,0.00,0,Wunderground v.1.15,2013-10-15 00:09:00,
2013-10-14 20:14:00,64.5,61.2,30.18,ENE,58,0.0,2.0,89,0.00,,,0.00,0,Wunderground v.1.15,2013-10-15 00:14:00,
2013-10-14 20:20:00,64.5,61.2,30.19,ENE,58,1.0,2.0,89,0.00,,,0.00,0,Wunderground v.1.15,2013-10-15 00:20:00,
2013-10-14 20:25:00,64.4,61.1,30.18,ENE,58,0.0,3.0,89,0.00,,,0.00,0,Wunderground v.1.15,2013-10-15 00:25:00,
2013-10-14 20:30:00,64.6,61.3,30.18,ENE,58,0.0,0.0,89,0.00,,,0.00,0,Wunderground v.1.15,2013-10-15 00:30:00,
2013-10-14 20:35:00,64.6,61.3,30.18,ENE,58,0.0,2.0,89,0.00,,,0.00,0,Wunderground v.1.15,2013-10-15 00:35:00,
2013-10-14 20:40:00,64.5,61.2,30.18,ENE,58,0.0,1.0,89,0.00,,,0.00,0,Wunderground v.1.15,2013-10-15 00:40:00,
2013-10-14 20:45:00,64.4,61.1,30.18,ENE,59,0.0,1.0,89,0.00,,,0.00,0,Wunderground v.1.15,2013-10-15 00:45:00,
2013-10-14 20:50:00,64.5,61.2,30.18,ENE,58,1.0,1.0,89,0.00,,,0.00,0,Wunderground v.1.15,2013-10-15 00:50:00,
2013-10-14 20:55:00,64.5,61.2,30.18,ENE,58,2.0,2.0,89,0.00,,,0.00,0,Wunderground v.1.15,2013-10-15 00:55:00,
2013-10-14 21:00:00,64.5,61.5,30.18,ENE,58,1.0,2.0,90,0.00,,,0.00,0,Wunderground v.1.15,2013-10-15 01:00:00,
2013-10-14 21:06:00,64.4,61.4,30.18,ENE,58,1.0,3.0,90,0.00,,,0.00,0,Wunderground v.1.15,2013-10-15 01:06:00,
2013-10-14 21:11:00,64.4,61.4,30.18,ENE,58,0.0,2.0,90,0.00,,,0.00,0,Wunderground v.1.15,2013-10-15 01:11:00,
2013-10-14 21:16:00,64.3,61.3,30.18,ENE,58,0.0,2.0,90,0.00,,,0.00,0,Wunderground v.1.15,2013-10-15 01:16:00,
2013-10-14 21:21:00,64.4,61.4,30.18,ENE,58,1.0,1.0,90,0.00,,,0.00,0,Wunderground v.1.15,2013-10-15 01:21:00,
2013-10-14 21:26:00,64.3,61.3,30.18,ENE,58,0.0,1.0,90,0.00,,,0.00,0,Wunderground v.1.15,2013-10-15 01:26:00,
2013-10-14 21:31:00,64.3,61.3,30.18,ENE,58,0.0,0.0,90,0.00,,,0.00,0,Wunderground v.1.15,2013-10-15 01:31:00,
2013-10-14 21:36:00,64.3,61.3,30.18,ENE,58,0.0,0.0,90,0.00,,,0.00,0,Wunderground v.1.15,2013-10-15 01:36:00,
2013-10-14 21:41:00,64.3,61.3,30.18,ENE,58,0.0,0.0,90,0.00,,,0.00,0,Wunderground v.1.15,2013-10-15 01:41:00,
2013-10-14 21:46:00,64.2,61.2,30.18,ENE,58,0.0,0.0,90,0.00,,,0.00,0,Wunderground v.1.15,2013-10-15 01:46:00,
2013-10-14 21:51:00,64.2,61.2,30.18,ENE,58,0.0,0.0,90,0.00,,,0.00,0,Wunderground v.1.15,2013-10-15 01:51:00,
2013-10-14 21:56:00,64.2,61.5,30.18,ENE,58,0.0,0.0,91,0.00,,,0.00,0,Wunderground v.1.15,2013-10-15 01:56:00,
2013-10-14 22:02:00,64.2,61.5,30.17,ENE,57,0.0,0.0,91,0.00,,,0.00,0,Wunderground v.1.15,2013-10-15 02:02:00,
2013-10-14 22:07:00,64.2,61.5,30.18,ENE,58,0.0,0.0,91,0.00,,,0.00,0,Wunderground v.1.15,2013-10-15 02:07:00,
2013-10-14 22:12:00,64.2,61.5,30.18,ENE,59,0.0,0.0,91,0.00,,,0.00,0,Wunderground v.1.15,2013-10-15 02:12:00,
2013-10-14 22:17:00,64.1,61.4,30.18,ENE,58,0.0,1.0,91,0.00,,,0.00,0,Wunderground v.1.15,2013-10-15 02:17:00,
2013-10-14 22:22:00,64.0,61.3,30.17,ENE,58,0.0,0.0,91,0.00,,,0.00,0,Wunderground v.1.15,2013-10-15 02:22:00,
2013-10-14 22:27:00,64.0,61.6,30.18,ENE,58,0.0,0.0,92,0.00,,,0.00,0,Wunderground v.1.15,2013-10-15 02:27:00,
2013-10-14 22:32:00,63.9,61.5,30.17,ENE,59,0.0,0.0,92,0.00,,,0.00,0,Wunderground v.1.15,2013-10-15 02:32:00,
2013-10-14 22:37:00,63.9,61.2,30.17,ENE,58,0.0,1.0,91,0.00,,,0.00,0,Wunderground v.1.15,2013-10-15 02:37:00,
2013-10-14 22:42:00,63.9,61.5,30.17,ENE,58,0.0,1.0,92,0.00,,,0.00,0,Wunderground v.1.15,2013-10-15 02:42:00,
2013-10-14 22:47:00,63.8,61.4,30.18,ENE,58,1.0,1.0,92,0.00,,,0.00,0,Wunderground v.1.15,2013-10-15 02:47:00,
2013-10-14 22:52:00,63.8,61.4,30.18,ENE,58,0.0,0.0,92,0.00,,,0.00,0,Wunderground v.1.15,2013-10-15 02:52:00,
2013-10-14 22:57:00,63.8,61.4,30.18,ENE,58,0.0,1.0,92,0.00,,,0.00,0,Wunderground v.1.15,2013-10-15 02:57:00,
2013-10-14 23:02:00,63.6,61.2,30.18,ENE,58,0.0,1.0,92,0.00,,,0.00,0,Wunderground v.1.15,2013-10-15 03:02:00,
2013-10-14 23:07:00,63.7,61.3,30.17,ENE,58,0.0,1.0,92,0.00,,,0.00,0,Wunderground v.1.15,2013-10-15 03:07:00,
2013-10-14 23:12:00,63.6,61.2,30.17,ENE,57,0.0,0.0,92,0.00,,,0.00,0,Wunderground v.1.15,2013-10-15 03:12:00,
2013-10-14 23:17:00,63.7,61.3,30.17,ENE,58,0.0,0.0,92,0.00,,,0.00,0,Wunderground v.1.15,2013-10-15 03:17:00,
2013-10-14 23:22:00,63.6,61.2,30.17,ENE,58,0.0,0.0,92,0.00,,,0.00,0,Wunderground v.1.15,2013-10-15 03:22:00,
2013-10-14 23:27:00,63.6,61.2,30.17,ENE,58,1.0,2.0,92,0.00,,,0.00,0,Wunderground v.1.15,2013-10-15 03:27:00,
2013-10-14 23:32:00,63.6,61.5,30.17,ENE,58,0.0,0.0,93,0.00,,,0.00,0,Wunderground v.1.15,2013-10-15 03:32:00,
2013-10-14 23:37:00,63.7,61.3,30.17,ENE,58,0.0,1.0,92,0.00,,,0.00,0,Wunderground v.1.15,2013-10-15 03:37:00,
2013-10-14 23:42:00,63.6,61.5,30.17,ENE,57,0.0,1.0,93,0.00,,,0.00,0,Wunderground v.1.15,2013-10-15 03:42:00,
2013-10-14 23:48:00,63.6,61.5,30.18,ENE,58,0.0,1.0,93,0.00,,,0.00,0,Wunderground v.1.15,2013-10-15 03:48:00,
2013-10-14 23:53:00,63.5,61.1,30.17,ENE,57,1.0,2.0,92,0.00,,,0.00,0,Wunderground v.1.15,2013-10-15 03:53:00,
2013-10-14 23:58:00,63.6,61.5,30.17,ENE,57,0.0,2.0,93,0.00,,,0.00,0,Wunderground v.1.15,2013-10-15 03:58:00,